星链-2453 (STARLINK-2453 )

导读

STARLINK-2453是美国太空探索技术公司SpaceX星链星座中的一颗卫星,于2021年3月11日发射入轨。星链项目旨在构建全球卫星互联网通信系统,该卫星承担着为全球偏远、欠发达地区提供高速网络接入服务的任务,丰富了低轨卫星通信网络的覆盖能力,推动全球互联进程发展。

基本信息
目录编号:
47845
目录名称:
STARLINK-2453
国际标识:
2021-018BL
轨道中心:
EARTH
卫星名称:
星链-2453
卫星全名:
星链-2453 (STARLINK-2453 )
卫星状态:
在轨 (已飞行1925 天)
发射日期:
2021-03-11 UTC
国别 :
美国 (US)
星等 :
--
轨道信息
数据来源 国际轨道数据 AOE轨道数据
星历时间 2026-06-18T06:46:24+0800
17小时前
查看轨道信息
2026-06-17T05:00:00+0800
1天前
查看轨道信息
半长轴 6848.894km 6848.854km
偏心率 0.0001353 0.000149
轨道倾角 53.161° 53.161°
近地点辐角 91.408° 77.422°
升交点赤经 152.209° 157.209°
平近点角 268.708° 117.879°
近地点 469.83km 469.696km
远地点 471.684km 471.738km
周期 94.014分钟 94.013分钟
每日圈数 15.316945 15.317078
详细信息
固有亮度:
5
最大亮度:
2.5
卫星平台:
Starlink V1.0
覆盖范围:
全球
运营商:
太空探索技术公司
运营商所在国:
美国
制造商(研发单位):
太空探索技术公司
制造商所在国:
美国
使用方式:
暂无
卫星简介
星链(Starlink)计划是由太空探索技术公司(SpaceX)提出的一个巨型低轨卫星互联网星座项目,计划在2019年至2024年间在太空搭建由约1.2万颗卫星组成的“星链”网络,其中1584颗将部署在地球上空550千米处的近地轨道,并从2020年开始工作。该卫星仍在工作。
2D轨道图
3D轨道图
轨道高度分析图
轨道倾角分析图
轨道综合分析图
查看轨道综合分析图